Погода в Старопавловской

Россия / Ставропольский край     43°50′43″N   43°38′11″E
темп.,
°C
ветер,
м/с
пор.,
м/с
влажн.,
%
обл.,
%
осадки,
мм/ч
давл.,
гПа
погр.,
м
17 мая, пн
пн1700:00+17с116782 0.0 100411
03:00+16с1166100 0.0 100411
06:00+18зсз00695 0.0 100432
09:00+24ссв22540 0.0 1004432
12:00+28ссв434568 0.0 10041088
15:00+28с444556 0.0 10021382
18:00+17ю81280100 1.7 1006225
21:00+17сз61079100 2.1 1005182
18 мая, вт
вт1800:00+17зсз51383100 0.4 1008471
03:00+16сз51089100 0.8 1009456
06:00+16зсз4986100 0.5 1011517
09:00+17сз487899 1.3 1012744
12:00+20св126376 0.0 10121107
15:00+21ю216194 0.6 10121158
18:00+21св226534 0.0 1012325
21:00+15св11790 0.0 101211
19 мая, ср
ср1900:00+13юз11870 0.0 101111
03:00+13ю11925 0.0 101010
06:00+14вюв128425 0.0 100897
09:00+18ссз347481 0.3 1010477
12:00+23с335548 0.2 10101610
15:00+15ссз71376100 0.9 1013593
18:00+16зсз2484100 0.6 1015191
21:00+13юз228636 0.6 101610
20 мая, чт
чт2000:00+12ю228842 0.0 101723
03:00+12ююв118856 0.0 101715
06:00+13юв248599 0.0 1018144
09:00+17юв467214 0.0 1017832
12:00+21вюв55553 0.0 10151436
15:00+23в66460 0.0 10151612
18:00+21в58580 0.0 1015373
21:00+15юв22760 0.0 101524
21 мая, пт
пт2100:00+13юв22840 0.0 101411
03:00+11вюв11860 0.0 101310
06:00+14вюв01770 0.0 101355
09:00+20в33570 0.0 1012431
12:00+25в44480 0.0 1012885
15:00+27в55460 0.0 10111119
18:00+24в695641 0.0 1011358
21:00+17в24720 0.0 101273